Back to catalog

STARLINK-36397

AliveCommunicationsSSO
NORAD 67538·PAYLOAD·🇺🇸 United States

Launched Jan 22, 2026 from Vandenberg Space Force Base

Loading…

Next Passes (next 24 hours)

TLE

FreshSource: CelesTrak SupGP

Epoch: Sep 14, 2026, 14:56 UTC

1 67538C 26014G   26257.62270833  .00042452  00000+0  13179-2 0  2571
2 67538  97.2842 143.0929 0001835  84.4289 112.4194 15.33414217    17

Track STARLINK-36397 in real time with AllMySat

Download on the App Store